Simultaneous Nadir Overpasses (SNOs) Predictions

Prediction of SNOs between GOES-16 and METOP-B Satellite Orbit:

Table of predicted SNOs for the next 14.0 days since TLE Epoch: 12/24/2022
Index Date Time (GOES-16) GOES-16 Lat,Lon METOP-B Lat,Lon Distance(km) Time Diff (sec)
1 12/25/2022 14:44:39 -0.03, -75.20 0.64, -78.16 337.13 80
2 12/26/2022 14:21:20 -0.03, -75.21 -0.52, -73.17 232.47 80
3 12/28/2022 02:43:01 0.03, -75.20 -0.52, -77.77 291.29 80
4 12/29/2022 02:19:41 0.03, -75.21 0.57, -72.77 278.91 80
5 12/30/2022 14:41:14 -0.02, -75.25 0.42, -77.33 237.13 80
6 12/31/2022 14:17:54 -0.03, -75.26 -0.68, -72.34 333.51 80
7 01/02/2023 02:39:34 0.02, -75.27 -0.36, -76.93 188.92 80
8 01/03/2023 02:16:15 0.03, -75.29 0.75, -71.93 381.96 80
9 01/04/2023 14:37:47 -0.02, -75.33 0.24, -76.50 133.26 80
10 01/05/2023 14:14:28 -0.02, -75.35 -0.87, -71.50 437.97 80
